K4EME-15 Weather Reports


Display with metric or nautical units.
time (UTC)temp
F
wind
direction
speed
MPH
gust
MPH
rain 1hr
in
rain 24hr
in
rain mn
in
humidity
%
barometer
mb
20260504081658 49 0 0.0 0.0 181.76 0.00 0.00
20260504081158 49 0 0.0 0.0 181.76 0.00 0.00
20260504080659 51 0 0.0 0.0 181.76 0.00 0.00
20260504080158 51 0 0.0 0.0 181.76 0.00 0.00
20260504015157 50 0 0.0 0.0 181.76 0.00 0.00
20260504014658 51 0 0.0 0.0 181.76 0.00 0.00
20260504014157 51 0 0.0 0.0 181.76 0.00 0.00
20260503202158 63 210 3.0 6.0 181.76 0.00 0.00
20260503180659 60 255 5.0 9.0 181.76 0.00 0.00
20260503180159 60 352 3.0 6.0 181.76 0.00 0.00
20260503175658 59 318 5.0 9.0 181.76 0.00 0.00
20260503175159 58 283 3.0 7.0 181.76 0.00 0.00
20260503174159 58 267 6.0 11.0 181.76 0.00 0.00
20260503173659 58 328 1.0 3.0 181.76 0.00 0.00
20260503173159 57 340 3.0 8.0 181.76 0.00 0.00
20260503172701 59 304 3.0 7.0 181.76 0.00 0.00
20260503172200 56 322 3.0 7.0 181.76 0.00 0.00
20260503171659 56 0 0.0 0.0 181.76 0.00 0.00
20260503170659 55 345 8.0 11.0 181.76 0.00 0.00
20260503170159 55 346 1.0 6.0 181.76 0.00 0.00
20260503160159 53 332 4.0 8.0 181.76 0.00 0.00
20260503150659 50 0 0.0 0.0 181.76 0.00 0.00
20260503150200 49 314 2.0 6.0 181.76 0.00 0.00
20260503140159 46 0 0.0 0.0 181.76 0.00 0.00
20260503131159 44 339 8.0 11.0 181.76 0.00 0.00
20260503130659 44 325 1.0 5.0 181.76 0.00 0.00
20260503130200 48 339 6.0 8.0 181.76 0.00 0.00
20260503120159 43 246 4.0 6.0 181.76 0.00 0.00
20260503110659 40 0 0.0 0.0 181.76 0.00 0.00
20260503110159 40 0 0.0 0.0 181.76 0.00 0.00
20260503100159 37 0 0.0 0.0 181.76 0.00 0.00